Location: St. Malo Provincial Park
(49.3214°N, 96.9305°W)
Time: 15:29:57
(UTC-05:00)

Daily predictions for brighter satellites

Satellite Brightness Start Highest point End
(mag) Time Altitude Azimuth Time Altitude Azimuth Time Altitude Azimuth
Cosmos 2150 Rocket 4.2 21:47:10 10° NNW 21:52:35 74° ENE 21:57:54 10° SSE
CZ-4C R/B 3.5 21:47:49 10° NW 21:54:20 47° NE 22:01:45 10° ESE
Cosmos 2084 3.7 21:50:25 10° SSW 21:54:29 44° SE 21:58:22 10° NE
Cosmos 1975 3.7 21:51:37 10° NNW 21:55:34 51° W 21:59:27 10° S
BREEZE-M DEB 4.4 21:53:18 10° W 21:57:15 82° N 22:00:10 10° E
SJ 16-02 2.2 21:56:42 10° N 22:00:51 37° ENE 22:04:59 10° SE
SL-08 RB Rocket 3.8 21:59:53 10° SSE 22:04:23 67° ENE 22:08:58 10° N
Cosmos 2233 Rocket 4.2 22:01:10 10° SSW 22:07:19 80° W 22:13:36 10° N
Resurs 01 Rocket 3.4 22:03:39 10° SSW 22:07:32 30° W 22:11:27 10° NNW
deb Kosmos-1763 4.2 22:04:04 10° SSW 22:07:46 84° WNW 22:11:31 10° NNE
Cosmos 1666 3.9 22:04:18 10° NNW 22:07:59 42° W 22:11:39 10° SSW
Cosmos 2360 Rocket 2.3 22:02:34 10° NNW 22:08:14 74° ENE 22:13:52 10° SE
Cosmos 1536 Rocket 4.4 22:06:12 10° SSE 22:10:11 34° E 22:14:14 10° NNE
Helios 1B rocket 4.1 22:08:12 10° NE 22:11:06 18° E 22:13:58 10° SE
Cosmos 2219 Rocket 3.4 22:07:03 10° NNW 22:12:00 30° NE 22:16:54 10° ESE
Meteor 1-19 Rocket 4.4 22:06:33 10° S 22:12:29 88° E 22:18:26 10° NNE
Cosmos 1937 Rocket 4.0 22:07:29 10° NNW 22:12:32 57° WSW 22:17:33 10° S
Cosmos 540 Rocket 4.3 22:08:47 10° SSE 22:13:17 31° E 22:17:48 10° NE
Cosmos 2298 Rocket 4.3 22:08:08 10° NNW 22:13:26 71° WSW 22:18:42 10° SSE
Cosmos 468 Rocket 4.3 22:09:57 10° SSW 22:15:13 77° WNW 22:20:28 10° NNE
Cosmos 1743 4.3 22:17:12 10° NNW 22:20:40 33° W 22:24:06 10° SSW
Cosmos 1763 Rocket 3.5 22:15:56 10° SSW 22:21:14 81° ESE 22:26:32 10° NNE
Meteor 2-9 Rocket 4.3 22:16:04 10° NNW 22:21:23 74° W 22:26:47 10° S
USA 32 4.1 22:20:08 10° N 22:25:25 84° W 22:30:39 10° S
Cosmos 841 Rocket 3.5 22:21:40 10° S 22:26:51 65° ESE 22:32:06 10° NNE
Iridium 2 4.4 22:27:12 10° SSW 22:30:57 55° W 22:34:46 10° N
BREEZE-M R/B 2.0 22:28:24 10° WSW 22:31:58 66° SSE 22:34:26 10° E
SPOT 5 2.8 22:28:41 12° SSE 22:32:44 64° ENE 22:37:21 10° N
Cosmos 2333 Rocket 3.2 22:29:12 10° NNW 22:34:32 38° NE 22:39:38 11° ESE
Cosmos 372 Rocket 4.1 22:29:26 10° NNW 22:34:36 69° ENE 22:39:00 14° SSE
Meteor 1-23 Rocket 4.3 22:32:12 10° S 22:37:41 63° E 22:43:12 10° NNE
COSMOS 2428 3.1 22:32:10 10° NNW 22:37:47 56° NE 22:42:36 14° SE
Terra 2.6 22:33:59 13° SE 22:37:51 39° ENE 22:42:17 10° N
SL-16 R/B 4.5 22:34:31 10° N 22:37:55 16° NNE 22:41:20 10° ENE
Lacrosse 5 rocket 1.7 22:35:37 10° WNW 22:39:55 56° SW 22:43:05 16° SSE
USA 234 3.2 22:35:05 10° ENE 22:41:40 74° SE 22:48:14 10° SW
CARTOSAT-1 4.1 22:39:20 15° SE 22:42:40 45° ENE 22:46:48 10° N
BREEZE M DEB (TANK) 4.3 22:35:44 10° WNW 22:44:48 33° SW 22:47:55 13° S
CZ-2C R/B 4.0 22:41:20 13° SE 22:45:41 40° ENE 22:50:56 10° N
Abrixas rocket 2.1 22:43:54 10° WSW 22:47:05 58° SSE 22:50:16 10° E
ISS -3.4 22:45:30 10° W 22:48:46 66° NNW 22:52:02 10° ENE
Cosmos 1833 4.2 22:43:35 10° SSW 22:49:18 73° ESE 22:54:58 10° NNE
Meteor 2-4 Rocket 4.1 22:44:22 10° SSW 22:49:49 67° WNW 22:55:27 10° N
Spot 1 4.2 22:47:20 17° SE 22:50:22 55° ENE 22:54:23 10° N
NOSS 3-2 (A) 4.4 22:44:38 10° WSW 22:50:37 54° NW 22:57:22 10° NE
Cosmos 1513 Rocket 4.5 22:45:43 10° S 22:51:50 89° E 22:58:05 10° N
ERS-1 Rocket 3.5 22:47:58 10° S 22:52:54 57° W 22:57:53 10° NNW
Iridium 90 3.1 22:53:13 24° S 22:54:21 81° E 22:56:31 10° N
Cosmos 1025 Rocket 3.5 22:51:30 16° SSE 22:54:39 44° E 22:58:50 10° NNE
Cosmos 1356 3.8 22:51:33 10° SSW 22:55:00 67° WNW 22:58:29 10° N
Cosmos 2034 Rocket 3.9 22:49:06 10° S 22:55:14 79° E 23:01:25 10° NNE
Cosmos 1515 3.8 22:52:26 10° SSW 22:56:16 77° W 23:00:08 10° N
NOSS 3-2 (C) 4.1 22:50:33 10° WSW 22:56:36 62° NW 23:03:25 10° NE
Tiangong 2 2.3 22:54:00 10° WSW 22:56:39 25° S 22:57:21 22° SSE
USA 245 4.2 22:53:53 11° S 22:57:15 49° W 23:01:44 10° NNW
Cosmos 1464 Rocket 4.2 22:52:24 10° SSW 22:58:47 76° W 23:05:12 10° N
Cosmos 1455 Rocket 4.4 22:55:28 10° NNW 22:59:27 35° W 23:03:25 10° SSW
Cosmos 2297 Rocket 4.1 22:59:43 10° ESE 23:01:05 11° E 23:02:37 10° ENE
Cosmos 2322 4.0 22:55:25 10° NNW 23:01:06 64° WSW 23:05:41 16° S
SPOT 1/Viking Rocket 3.7 22:57:27 14° S 23:01:56 76° WSW 23:07:08 10° NNW
Cosmos 2322 Rocket 4.1 22:57:45 10° NW 23:02:00 22° WSW 23:06:13 10° SSW
Meteor 1-29 3.5 23:00:06 10° NNE 23:03:27 42° E 23:05:14 23° SSE
Cosmos 2227 Rocket 4.0 23:02:54 12° ESE 23:04:24 13° E 23:07:03 10° ENE
H-2A R/B 3.2 23:01:09 10° SSW 23:05:43 37° W 23:10:26 10° NNW
Cosmos 2237 Rocket 3.2 23:01:10 10° NNW 23:06:29 38° NE 23:11:02 14° ESE
Cosmos 1340 Rocket 4.0 23:03:01 10° SSW 23:06:55 44° WNW 23:10:52 10° N
Shenzhou-11 Module 4.4 23:06:53 10° SW 23:07:37 11° SSW 23:07:37 11° SSW
Cosmos 1125 Rocket 3.7 23:04:53 10° NNW 23:10:08 70° WSW 23:13:59 18° S
SL-16 R/B 4.4 23:07:36 10° WNW 23:11:20 18° W 23:15:04 10° SW
Iridium 40 3.8 23:10:33 35° S 23:11:21 86° W 23:13:45 10° N
YAOGAN 11 4.3 23:09:09 21° SSE 23:12:05 63° ENE 23:16:35 10° N
Cosmos 292 Rocket 4.4 23:07:34 10° SW 23:12:14 57° WNW 23:16:57 10° NNE
CENTAUR R/B 2.7 23:09:44 10° SW 23:15:53 85° NW 23:23:06 10° NE
Cosmos 1066 Rocket 4.2 23:12:12 17° S 23:16:15 60° E 23:21:39 10° NNE
DMSP B5D2-2 4.3 23:13:06 10° NNE 23:18:24 74° WNW 23:23:39 10° SSW
Helios 1A 4.1 23:18:35 13° SSW 23:21:55 39° W 23:25:51 10° NNW
Cosmos 1634 Rocket 4.2 23:17:54 19° SSE 23:22:24 55° E 23:28:35 10° NNE
ERBS 3.8 23:20:50 10° NW 23:23:58 33° NNE 23:27:05 10° E
Cosmos 1766 3.6 23:25:00 10° N 23:28:55 53° ENE 23:30:44 28° SE
Cosmos 2084 Rocket 4.2 23:25:09 10° NW 23:29:02 43° NE 23:31:43 18° ESE
H-2A R/B 4.4 23:27:37 10° E 23:29:49 14° ENE 23:32:01 10° NNE
Meteor 1-22 Rocket 4.1 23:25:04 10° N 23:30:28 70° ENE 23:33:40 24° SSE
Okean 2 3.8 23:27:00 14° SSW 23:30:33 64° WNW 23:34:44 10° N
ATLAS 3B R/B 4.5 23:24:52 10° W 23:31:11 34° NNW 23:37:18 10° NE
Cosmos 1174 4.0 23:28:57 10° NNW 23:31:51 42° NE 23:33:11 26° ESE
Cosmos 2219 3.5 23:30:45 19° S 23:34:38 51° ESE 23:40:12 10° NE
Cosmos 1892 Rocket 4.1 23:34:27 27° SE 23:36:15 41° E 23:40:21 10° NNE
SAR-Lupe-4 4.1 23:34:50 29° SE 23:36:15 47° ENE 23:39:44 10° N
Cosmos 1544 3.2 23:34:09 10° NNW 23:37:52 71° W 23:39:37 29° S
SJ 16-02 2.9 23:35:33 10° NW 23:39:19 28° W 23:42:18 14° SSW
Nimbus 7 Rocket 4.4 23:34:57 10° NNE 23:40:50 74° ESE 23:45:13 19° S
Cosmos 1356 Rocket 3.9 23:39:34 16° SSW 23:42:57 63° WNW 23:47:16 10° N
CZ-4C R/B 3.1 23:36:19 10° NW 23:43:19 63° SW 23:48:29 23° SSE
Okean 1-7 Rocket 3.6 23:43:20 25° S 23:46:01 84° E 23:50:36 10° N
Helios 1B rocket 3.2 23:42:39 10° N 23:46:41 50° WNW 23:50:20 12° SW
Cosmos 2228 3.0 23:43:39 10° N 23:47:57 68° E 23:49:50 32° SSE
BREEZE-M R/B 4.4 23:41:15 10° W 23:50:08 84° N 23:55:51 10° E
Cosmos 2360 Rocket 4.1 23:47:35 10° NW 23:51:38 21° W 23:55:41 10° SSW
Cosmos 1726 Rocket 3.5 23:47:54 10° N 23:52:20 85° W 23:54:26 31° S
COSMOS 2455 3.8 23:50:51 24° SE 23:52:46 29° ESE 23:57:53 10° NE
CZ-2C R/B 2.8 23:47:27 10° NNE 23:53:04 65° ESE 23:56:18 26° S
SAR-Lupe-1 4.2 23:53:01 38° SE 23:54:12 64° ENE 23:57:47 10° N
